Overview Statistics Trail Chart Weather Telemetry Raw packets
 

This is the latest recevied weather packets stored in our database for station/object GBTWP-2. If no packets are shown the sender has not sent any weather packets the latest 10 day(s).

<< 22 23 24 25 26 27 28 >>
Time Temp. Humidity Pressure Rain* Wind** Luminosity Snow
1788524820 19.44° C 99% 1019.1 hPa 1.27 mm - 4 W/m² -
1788524519 19.44° C 99% 1018.8 hPa 1.27 mm - 10 W/m² -
1788524220 19.44° C 99% 1018.8 hPa 0 mm - 6 W/m² -
1788523919 19.44° C 99% 1019 hPa 0 mm - 5 W/m² -
1788523619 19.44° C 99% 1019.1 hPa 0 mm - 6 W/m² -
1788523319 19.44° C 99% 1018.9 hPa 0 mm - 5 W/m² -
1788523020 19.44° C 99% 1018.6 hPa 0 mm - 5 W/m² -
1788522720 19.44° C 99% 1018.7 hPa 0 mm - 3 W/m² -
1788522419 19.44° C 99% 1018.6 hPa 0 mm - 5 W/m² -
1788522141 18.89° C 99% 1018.5 hPa 0 mm - 4 W/m² -
1788521819 18.89° C 99% 1018.2 hPa 0 mm - 5 W/m² -
1788521520 18.89° C 99% 1018.3 hPa 0 mm - 4 W/m² -
1788521220 18.89° C 99% 1018.3 hPa 1.78 mm - 4 W/m² -
1788520920 18.89° C 99% 1018.3 hPa 1.78 mm - 3 W/m² -
1788520618 18.89° C 99% 1018.5 hPa 0 mm - 2 W/m² -
1788520319 18.89° C 99% 1018.1 hPa 0 mm - 1 W/m² -
1788520020 18.89° C 99% 1018.3 hPa 0 mm - 1 W/m² -
1788519719 18.89° C 99% 1018.1 hPa 0 mm - 1 W/m² -
1788519420 18.89° C 99% 1018.2 hPa 0 mm - 0 W/m² -
1788519119 18.89° C 99% 1018.1 hPa 0 mm - 0 W/m² -
1788518820 18.89° C 99% 1018 hPa 0 mm - 0 W/m² -
1788518519 18.89° C 99% 1018.1 hPa 0 mm - 0 W/m² -
1788518219 18.89° C 99% 1017.9 hPa 0 mm - 0 W/m² -
1788517919 18.89° C 99% 1017.6 hPa 0 mm - 0 W/m² -
1788517620 18.89° C 99% 1017.5 hPa 0 mm - 0 W/m² -

* Rain latest hour (hover to see other rain measurements)
** Current wind speed in m/s (hover to see current wind gust speed)